Laramie, WY

9:15 AM MDT on August 21, 2017 (GMT -0600)
Laramie Regional

Weather History for KLAR - November, 2011

Change the Weather History Date:

Saturday, November 5, 2011

  Actual Average Record
Temperature  
Mean Temperature 30 °F 34 °F  
Max Temperature 41 °F 47 °F 66 °F (1977)
Min Temperature 19 °F 22 °F -12 °F (1967)
Degree Days  
Heating Degree Days 35 31  
Month to date heating degree days 210 149  
Since 1 July heating degree days 1240 1392  
Cooling Degree Days 0 0  
Month to date cooling degree days 0 0  
Year to date cooling degree days 126 67  
Moisture  
Dew Point 21 °F    
Average Humidity 66    
Maximum Humidity 76    
Minimum Humidity 56    
Precipitation  
Precipitation T in 0.02 in 0.30 in (1990)
Month to date precipitation 0.20 0.11  
Year to date precipitation 10.15 10.17  
Sea Level Pressure  
Sea Level Pressure 29.45 in    
Wind  
Wind Speed 13 mph (WNW)    
Max Wind Speed 35 mph    
Max Gust Speed 41 mph    
Visibility 9 miles    
Events Snow    
T = Trace of Precipitation, MM = Missing Value Source: NWS Daily Summary

Daily Weather History Graph

Daily Weather History Graph

Search for Another Location

Airport or City:

Trip Planner

Search our weather history database for the weather conditions in past years. The results will help you decide how hot, cold, wet, or windy it might be!

Date:

Astronomy

Nov. 05, 2011 Rise Set
Actual Time 7:38 AM MDT 5:53 PM MDT
Civil Twilight 7:09 AM MDT 6:22 PM MDT
Nautical Twilight 6:36 AM MDT 6:55 PM MDT
Astronomical Twilight 6:04 AM MDT 7:27 PM MDT
Moon 3:14 PM MDT (11/5) 2:48 AM MDT (11/5)
Length of Visible Light 11h 12m
Length of Day
10h 14m
Waxing Gibbous, 78% of the Moon is Illuminated
Nov 5
Waxing Gibbous
Nov 10
Full
Nov 18
Last Quarter
Nov 24
New
Dec 2
First Quarter

Hourly Weather History & Observations

Time (MDT) Temp. Windchill Dew Point Humidity Pressure Visibility Wind Dir Wind Speed Gust Speed Precip Events Conditions
12:53 AM 35.1 °F 26.4 °F 21.9 °F 59% 29.48 in 10.0 mi SSE 12.7 mph - N/A   Clear
1:53 AM 34.0 °F 25.5 °F 21.9 °F 61% 29.46 in 10.0 mi SSE 11.5 mph - N/A   Clear
2:53 AM 30.0 °F 21.7 °F 21.0 °F 69% 29.47 in 10.0 mi SSE 9.2 mph - N/A   Clear
3:53 AM 30.9 °F 24.3 °F 21.0 °F 67% 29.42 in 10.0 mi SE 6.9 mph - N/A   Clear
4:53 AM 33.1 °F 24.9 °F 21.0 °F 61% 29.37 in 10.0 mi SSW 10.4 mph - N/A   Clear
5:53 AM 28.9 °F 21.1 °F 19.9 °F 69% 29.37 in 10.0 mi West 8.1 mph - N/A   Clear
6:53 AM 26.6 °F 18.2 °F 19.4 °F 74% 29.44 in 10.0 mi SSW 8.1 mph - N/A   Clear
7:53 AM 30.9 °F 21.7 °F 19.0 °F 61% 29.34 in 10.0 mi SSW 11.5 mph - N/A   Clear
10:53 AM 37.9 °F 32.1 °F 28.9 °F 70% 29.30 in 10.0 mi North 8.1 mph - N/A   Mostly Cloudy
11:53 AM 39.9 °F 36.7 °F 30.0 °F 68% 29.28 in 10.0 mi North 4.6 mph - N/A   Clear
12:53 PM 39.2 °F - 30.2 °F 70% 29.36 in 10.0 mi Calm Calm - N/A   Clear
1:53 PM 39.2 °F 32.0 °F 32.0 °F 75% 29.34 in 10.0 mi North 11.5 mph - N/A   Mostly Cloudy
2:53 PM 34.0 °F 21.5 °F 27.0 °F 75% 29.32 in 10.0 mi North 24.2 mph 32.2 mph 0.00 in   Mostly Cloudy
3:38 PM 30.2 °F 17.8 °F 26.6 °F 86% 29.40 in 3.0 mi NW 19.6 mph - 0.00 in Snow Light Snow
3:51 PM 32.0 °F 19.5 °F 24.8 °F 75% 29.41 in 2.5 mi NW 21.9 mph 28.8 mph 0.00 in Snow Light Snow
3:53 PM 32.0 °F 19.5 °F 25.0 °F 75% 29.37 in 2.5 mi NW 21.9 mph 28.8 mph 0.00 in Snow Light Snow
4:04 PM 32.0 °F 19.2 °F 24.8 °F 75% 29.43 in 9.0 mi NW 23.0 mph 28.8 mph N/A   Overcast
4:53 PM 30.0 °F 16.9 °F 23.0 °F 75% 29.44 in 10.0 mi NW 21.9 mph 32.2 mph 0.00 in   Overcast
5:53 PM 30.0 °F 17.5 °F 19.9 °F 66% 29.51 in 10.0 mi WNW 19.6 mph 33.4 mph N/A   Mostly Cloudy
6:53 PM 26.1 °F 14.0 °F 17.1 °F 69% 29.58 in 10.0 mi West 15.0 mph - N/A   Clear
7:53 PM 25.0 °F 8.9 °F 12.9 °F 60% 29.60 in 10.0 mi WSW 26.5 mph 33.4 mph N/A   Clear
8:53 PM 23.0 °F 8.7 °F 12.9 °F 65% 29.61 in 10.0 mi West 18.4 mph - N/A   Clear
9:53 PM 23.0 °F 9.6 °F 12.2 °F 63% 29.63 in 10.0 mi WNW 16.1 mph - N/A   Mostly Cloudy
10:53 PM 21.9 °F 9.2 °F 10.9 °F 63% 29.64 in 10.0 mi WNW 13.8 mph - N/A   Partly Cloudy
11:53 PM 21.0 °F 11.4 °F 10.9 °F 65% 29.64 in 10.0 mi NW 8.1 mph - N/A   Mostly Cloudy